Year,Month,Day,Hour,Minute,Value (Times are PST for temperature in C)
2010,08,21,00,00,10.40
2010,08,21,00,01,10.40
2010,08,21,00,02,10.40
2010,08,21,00,03,10.40
2010,08,21,00,04,10.40
2010,08,21,00,05,10.40
2010,08,21,00,06,10.40
2010,08,21,00,07,10.40
2010,08,21,00,08,10.40
2010,08,21,00,09,10.40
2010,08,21,00,10,10.40
2010,08,21,00,11,10.40
2010,08,21,00,12,10.40
2010,08,21,00,13,10.40
2010,08,21,00,14,10.40
2010,08,21,00,15,10.40
2010,08,21,00,16,10.40
2010,08,21,00,17,10.40
2010,08,21,00,18,10.40
2010,08,21,00,19,10.40
2010,08,21,00,20,10.40
2010,08,21,00,21,10.40
2010,08,21,00,22,10.40
2010,08,21,00,23,10.40
2010,08,21,00,24,10.40
2010,08,21,00,25,10.40
2010,08,21,00,26,10.40
2010,08,21,00,27,10.40
2010,08,21,00,28,10.40
2010,08,21,00,29,10.40
2010,08,21,00,30,10.40
2010,08,21,00,31,10.40
2010,08,21,00,32,10.40
2010,08,21,00,33,10.40
2010,08,21,00,34,10.40
2010,08,21,00,35,10.40
2010,08,21,00,36,10.40
2010,08,21,00,37,10.40
2010,08,21,00,38,10.40
2010,08,21,00,39,10.40
2010,08,21,00,40,10.40
2010,08,21,00,41,10.50
2010,08,21,00,42,10.50
2010,08,21,00,43,10.50
2010,08,21,00,44,10.50
2010,08,21,00,45,10.60
2010,08,21,00,46,10.60
2010,08,21,00,47,10.60
2010,08,21,00,48,10.60
2010,08,21,00,49,10.60
2010,08,21,00,50,10.70
2010,08,21,00,51,10.70
2010,08,21,00,52,10.70
2010,08,21,00,53,10.70
2010,08,21,00,54,10.80
2010,08,21,00,55,10.80
2010,08,21,00,56,10.80
2010,08,21,00,57,10.80
2010,08,21,00,58,10.80
2010,08,21,00,59,10.80
2010,08,21,01,00,10.80
2010,08,21,01,01,10.90
2010,08,21,01,02,10.90
2010,08,21,01,03,10.90
2010,08,21,01,04,11.00
2010,08,21,01,05,10.90
2010,08,21,01,06,10.90
2010,08,21,01,07,10.90
2010,08,21,01,08,10.90
2010,08,21,01,09,10.90
2010,08,21,01,10,10.90
2010,08,21,01,11,10.90
2010,08,21,01,12,10.90
2010,08,21,01,13,10.90
2010,08,21,01,14,10.90
2010,08,21,01,15,11.00
2010,08,21,01,16,11.00
2010,08,21,01,17,11.00
2010,08,21,01,18,11.10
2010,08,21,01,19,11.10
2010,08,21,01,20,11.10
2010,08,21,01,21,11.10
2010,08,21,01,22,11.20
2010,08,21,01,23,11.30
2010,08,21,01,24,11.40
2010,08,21,01,25,11.40
2010,08,21,01,26,11.40
2010,08,21,01,27,11.50
2010,08,21,01,28,11.50
2010,08,21,01,29,11.60
2010,08,21,01,30,11.60
2010,08,21,01,31,11.60
2010,08,21,01,32,11.70
2010,08,21,01,33,11.70
2010,08,21,01,34,11.70
2010,08,21,01,35,11.70
2010,08,21,01,36,11.70
2010,08,21,01,37,11.70
2010,08,21,01,38,11.70
2010,08,21,01,39,11.70
2010,08,21,01,40,11.70
2010,08,21,01,41,11.70
2010,08,21,01,42,11.80
2010,08,21,01,43,11.80
2010,08,21,01,44,11.80
2010,08,21,01,45,11.80
2010,08,21,01,46,11.80
2010,08,21,01,47,11.80
2010,08,21,01,48,11.80
2010,08,21,01,49,11.80
2010,08,21,01,50,11.80
2010,08,21,01,51,11.90
2010,08,21,01,52,11.90
2010,08,21,01,53,11.90
2010,08,21,01,54,11.90
2010,08,21,01,55,11.90
2010,08,21,01,56,11.90
2010,08,21,01,57,11.90
2010,08,21,01,58,11.90
2010,08,21,01,59,11.90
2010,08,21,02,00,11.90
2010,08,21,02,01,11.80
2010,08,21,02,02,11.80
2010,08,21,02,03,11.80
2010,08,21,02,04,11.80
2010,08,21,02,05,11.80
2010,08,21,02,06,11.70
2010,08,21,02,07,11.70
2010,08,21,02,08,11.70
2010,08,21,02,09,11.70
2010,08,21,02,10,11.70
2010,08,21,02,11,11.60
2010,08,21,02,12,11.60
2010,08,21,02,13,11.60
2010,08,21,02,14,11.60
2010,08,21,02,15,11.60
2010,08,21,02,16,11.60
2010,08,21,02,17,11.50
2010,08,21,02,18,11.50
2010,08,21,02,19,11.50
2010,08,21,02,20,11.50
2010,08,21,02,21,11.50
2010,08,21,02,22,11.50
2010,08,21,02,23,11.50
2010,08,21,02,24,11.50
2010,08,21,02,25,11.50
2010,08,21,02,26,11.50
2010,08,21,02,27,11.50
2010,08,21,02,28,11.40
2010,08,21,02,29,11.40
2010,08,21,02,30,11.50
2010,08,21,02,31,11.50
2010,08,21,02,32,11.50
2010,08,21,02,33,11.50
2010,08,21,02,34,11.50
2010,08,21,02,35,11.50
2010,08,21,02,36,11.50
2010,08,21,02,37,11.50
2010,08,21,02,38,11.50
2010,08,21,02,39,11.50
2010,08,21,02,40,11.50
2010,08,21,02,41,11.50
2010,08,21,02,42,11.50
2010,08,21,02,43,11.50
2010,08,21,02,44,11.50
2010,08,21,02,45,11.50
2010,08,21,02,46,11.50
2010,08,21,02,47,11.50
2010,08,21,02,48,11.50
2010,08,21,02,49,11.50
2010,08,21,02,50,11.60
2010,08,21,02,51,11.70
2010,08,21,02,52,11.70
2010,08,21,02,53,11.70
2010,08,21,02,54,11.80
2010,08,21,02,55,11.80
2010,08,21,02,56,11.80
2010,08,21,02,57,11.80
2010,08,21,02,58,11.80
2010,08,21,02,59,11.80
2010,08,21,03,00,11.80
2010,08,21,03,01,11.70
2010,08,21,03,02,11.70
2010,08,21,03,03,11.70
2010,08,21,03,04,11.70
2010,08,21,03,05,11.70
2010,08,21,03,06,11.60
2010,08,21,03,07,11.60
2010,08,21,03,08,11.60
2010,08,21,03,09,11.60
2010,08,21,03,10,11.60
2010,08,21,03,11,11.50
2010,08,21,03,12,11.50
2010,08,21,03,13,11.50
2010,08,21,03,14,11.40
2010,08,21,03,15,11.40
2010,08,21,03,16,11.40
2010,08,21,03,17,11.40
2010,08,21,03,18,11.40
2010,08,21,03,19,11.40
2010,08,21,03,20,11.40
2010,08,21,03,21,11.40
2010,08,21,03,22,11.40
2010,08,21,03,23,11.40
2010,08,21,03,24,11.40
2010,08,21,03,25,11.40
2010,08,21,03,26,11.30
2010,08,21,03,27,11.30
2010,08,21,03,28,11.30
2010,08,21,03,29,11.30
2010,08,21,03,30,11.30
2010,08,21,03,31,11.30
2010,08,21,03,32,11.30
2010,08,21,03,33,11.30
2010,08,21,03,34,11.30
2010,08,21,03,35,11.20
2010,08,21,03,36,11.20
2010,08,21,03,37,11.20
2010,08,21,03,38,11.20
2010,08,21,03,39,11.20
2010,08,21,03,40,11.20
2010,08,21,03,41,11.20
2010,08,21,03,42,11.20
2010,08,21,03,43,11.20
2010,08,21,03,44,11.20
2010,08,21,03,45,11.10
2010,08,21,03,46,11.10
2010,08,21,03,47,11.10
2010,08,21,03,48,11.10
2010,08,21,03,49,11.10
2010,08,21,03,50,11.00
2010,08,21,03,51,11.00
2010,08,21,03,52,11.00
2010,08,21,03,53,11.00
2010,08,21,03,54,10.90
2010,08,21,03,55,10.90
2010,08,21,03,56,10.90
2010,08,21,03,57,10.90
2010,08,21,03,58,10.90
2010,08,21,03,59,10.90
2010,08,21,04,00,10.90
2010,08,21,04,01,10.90
2010,08,21,04,02,10.90
2010,08,21,04,03,10.90
2010,08,21,04,04,10.90
2010,08,21,04,05,10.90
2010,08,21,04,06,10.90
2010,08,21,04,07,10.90
2010,08,21,04,08,10.90
2010,08,21,04,09,10.80
2010,08,21,04,10,10.80
2010,08,21,04,11,10.80
2010,08,21,04,12,10.80
2010,08,21,04,13,10.80
2010,08,21,04,14,10.80
2010,08,21,04,15,10.80
2010,08,21,04,16,10.80
2010,08,21,04,17,10.80
2010,08,21,04,18,10.80
2010,08,21,04,19,10.80
2010,08,21,04,20,10.80
2010,08,21,04,21,10.80
2010,08,21,04,22,10.70
2010,08,21,04,23,10.70
2010,08,21,04,24,10.70
2010,08,21,04,25,10.70
2010,08,21,04,26,10.70
2010,08,21,04,27,10.70
2010,08,21,04,28,10.60
2010,08,21,04,29,10.60
2010,08,21,04,30,10.60
2010,08,21,04,31,10.60
2010,08,21,04,32,10.60
2010,08,21,04,33,10.60
2010,08,21,04,34,10.60
2010,08,21,04,35,10.60
2010,08,21,04,36,10.60
2010,08,21,04,37,10.60
2010,08,21,04,38,10.60
2010,08,21,04,39,10.60
2010,08,21,04,40,10.60
2010,08,21,04,41,10.60
2010,08,21,04,42,10.50
2010,08,21,04,43,10.50
2010,08,21,04,44,10.50
2010,08,21,04,45,10.50
2010,08,21,04,46,10.50
2010,08,21,04,47,10.50
2010,08,21,04,48,10.50
2010,08,21,04,49,10.50
2010,08,21,04,50,10.50
2010,08,21,04,51,10.40
2010,08,21,04,52,10.40
2010,08,21,04,53,10.40
2010,08,21,04,54,10.40
2010,08,21,04,55,10.40
2010,08,21,04,56,10.30
2010,08,21,04,57,10.30
2010,08,21,04,58,10.30
2010,08,21,04,59,10.30
2010,08,21,05,00,10.30
2010,08,21,05,01,10.30
2010,08,21,05,02,10.30
2010,08,21,05,03,10.30
2010,08,21,05,04,10.30
2010,08,21,05,05,10.30
2010,08,21,05,06,10.30
2010,08,21,05,07,10.30
2010,08,21,05,08,10.30
2010,08,21,05,09,10.20
2010,08,21,05,10,10.20
2010,08,21,05,11,10.20
2010,08,21,05,12,10.20
2010,08,21,05,13,10.20
2010,08,21,05,14,10.20
2010,08,21,05,15,10.30
2010,08,21,05,16,10.30
2010,08,21,05,17,10.30
2010,08,21,05,18,10.30
2010,08,21,05,19,10.30
2010,08,21,05,20,10.20
2010,08,21,05,21,10.20
2010,08,21,05,22,10.20
2010,08,21,05,23,10.20
2010,08,21,05,24,10.20
2010,08,21,05,25,10.20
2010,08,21,05,26,10.10
2010,08,21,05,27,10.10
2010,08,21,05,28,10.10
2010,08,21,05,29,10.10
2010,08,21,05,30,10.10
2010,08,21,05,31,10.10
2010,08,21,05,32,10.10
2010,08,21,05,33,10.10
2010,08,21,05,34,10.10
2010,08,21,05,35,10.10
2010,08,21,05,36,10.10
2010,08,21,05,37,10.10
2010,08,21,05,38,10.10
2010,08,21,05,39,10.10
2010,08,21,05,40,10.00
2010,08,21,05,41,10.00
2010,08,21,05,42,10.00
2010,08,21,05,43,10.00
2010,08,21,05,44,10.00
2010,08,21,05,45,10.00
2010,08,21,05,46,10.00
2010,08,21,05,47,9.90
2010,08,21,05,48,9.90
2010,08,21,05,49,9.90
2010,08,21,05,50,9.90
2010,08,21,05,51,9.90
2010,08,21,05,52,9.90
2010,08,21,05,53,9.90
2010,08,21,05,54,9.90
2010,08,21,05,55,9.80
2010,08,21,05,56,9.80
2010,08,21,05,57,9.80
2010,08,21,05,58,9.80
2010,08,21,05,59,9.80
2010,08,21,06,00,9.80
2010,08,21,06,01,9.80
2010,08,21,06,02,9.80
2010,08,21,06,03,9.80
2010,08,21,06,04,9.80
2010,08,21,06,05,9.80
2010,08,21,06,06,9.80
2010,08,21,06,07,9.80
2010,08,21,06,08,9.70
2010,08,21,06,09,9.70
2010,08,21,06,10,9.70
2010,08,21,06,11,9.70
2010,08,21,06,12,9.70
2010,08,21,06,13,9.70
2010,08,21,06,14,9.70
2010,08,21,06,15,9.70
2010,08,21,06,16,9.70
2010,08,21,06,17,9.70
2010,08,21,06,18,9.70
2010,08,21,06,19,9.70
2010,08,21,06,20,9.70
2010,08,21,06,21,9.70
2010,08,21,06,22,9.70
2010,08,21,06,23,9.70
2010,08,21,06,24,9.70
2010,08,21,06,25,9.70
2010,08,21,06,26,9.70
2010,08,21,06,27,9.60
2010,08,21,06,28,9.60
2010,08,21,06,29,9.60
2010,08,21,06,30,9.60
2010,08,21,06,31,9.60
2010,08,21,06,32,9.60
2010,08,21,06,33,9.60
2010,08,21,06,34,9.60
2010,08,21,06,35,9.60
2010,08,21,06,36,9.70
2010,08,21,06,37,9.70
2010,08,21,06,38,9.70
2010,08,21,06,39,9.70
2010,08,21,06,40,9.70
2010,08,21,06,41,9.70
2010,08,21,06,42,9.70
2010,08,21,06,43,9.70
2010,08,21,06,44,9.70
2010,08,21,06,45,9.70
2010,08,21,06,46,9.70
2010,08,21,06,47,9.70
2010,08,21,06,48,9.70
2010,08,21,06,49,9.70
2010,08,21,06,50,9.70
2010,08,21,06,51,9.70
2010,08,21,06,52,9.70
2010,08,21,06,53,9.60
2010,08,21,06,54,9.60
2010,08,21,06,55,9.60
2010,08,21,06,56,9.60
2010,08,21,06,57,9.60
2010,08,21,06,58,9.60
2010,08,21,06,59,9.70
2010,08,21,07,00,9.70
2010,08,21,07,01,9.80
2010,08,21,07,02,9.80
2010,08,21,07,03,9.80
2010,08,21,07,04,9.80
2010,08,21,07,05,9.80
2010,08,21,07,06,9.80
2010,08,21,07,07,9.80
2010,08,21,07,08,9.80
2010,08,21,07,09,9.80
2010,08,21,07,10,9.80
2010,08,21,07,11,9.80
2010,08,21,07,12,9.80
2010,08,21,07,13,9.80
2010,08,21,07,14,9.80
2010,08,21,07,15,9.80
2010,08,21,07,16,9.80
2010,08,21,07,17,9.80
2010,08,21,07,18,9.80
2010,08,21,07,19,9.90
2010,08,21,07,20,9.90
2010,08,21,07,21,10.00
2010,08,21,07,22,10.10
2010,08,21,07,23,10.10
2010,08,21,07,24,10.20
2010,08,21,07,25,10.20
2010,08,21,07,26,10.30
2010,08,21,07,27,10.30
2010,08,21,07,28,10.40
2010,08,21,07,29,10.40
2010,08,21,07,30,10.40
2010,08,21,07,31,10.40
2010,08,21,07,32,10.40
2010,08,21,07,33,10.40
2010,08,21,07,34,10.40
2010,08,21,07,35,10.40
2010,08,21,07,36,10.40
2010,08,21,07,37,10.40
2010,08,21,07,38,10.40
2010,08,21,07,39,10.40
2010,08,21,07,40,10.40
2010,08,21,07,41,10.40
2010,08,21,07,42,10.40
2010,08,21,07,43,10.40
2010,08,21,07,44,10.40
2010,08,21,07,45,10.50
2010,08,21,07,46,10.50
2010,08,21,07,47,10.70
2010,08,21,07,48,10.80
2010,08,21,07,49,10.90
2010,08,21,07,50,11.00
2010,08,21,07,51,11.10
2010,08,21,07,52,11.20
2010,08,21,07,53,11.30
2010,08,21,07,54,11.30
2010,08,21,07,55,11.30
2010,08,21,07,56,11.40
2010,08,21,07,57,11.40
2010,08,21,07,58,11.50
2010,08,21,07,59,11.60
2010,08,21,08,00,11.70
2010,08,21,08,01,11.80
2010,08,21,08,02,11.90
2010,08,21,08,03,11.90
2010,08,21,08,04,12.00
2010,08,21,08,05,12.10
2010,08,21,08,06,12.20
2010,08,21,08,07,12.20
2010,08,21,08,08,12.30
2010,08,21,08,09,12.40
2010,08,21,08,10,12.50
2010,08,21,08,11,12.60
2010,08,21,08,12,12.70
2010,08,21,08,13,12.80
2010,08,21,08,14,12.90
2010,08,21,08,15,12.90
2010,08,21,08,16,13.00
2010,08,21,08,17,13.10
2010,08,21,08,18,13.10
2010,08,21,08,19,13.20
2010,08,21,08,20,13.30
2010,08,21,08,21,13.40
2010,08,21,08,22,13.40
2010,08,21,08,23,13.50
2010,08,21,08,24,13.60
2010,08,21,08,25,13.70
2010,08,21,08,26,13.90
2010,08,21,08,27,14.00
2010,08,21,08,28,14.10
2010,08,21,08,29,14.20
2010,08,21,08,30,14.30
2010,08,21,08,31,14.40
2010,08,21,08,32,14.50
2010,08,21,08,33,14.60
2010,08,21,08,34,14.60
2010,08,21,08,35,14.80
2010,08,21,08,36,14.90
2010,08,21,08,37,15.00
2010,08,21,08,38,15.10
2010,08,21,08,39,15.30
2010,08,21,08,40,15.40
2010,08,21,08,41,15.60
2010,08,21,08,42,15.70
2010,08,21,08,43,15.80
2010,08,21,08,44,15.90
2010,08,21,08,45,16.00
2010,08,21,08,46,16.10
2010,08,21,08,47,16.20
2010,08,21,08,48,16.20
2010,08,21,08,49,16.20
2010,08,21,08,50,16.20
2010,08,21,08,51,16.10
2010,08,21,08,52,16.10
2010,08,21,08,53,16.00
2010,08,21,08,54,16.00
2010,08,21,08,55,16.00
2010,08,21,08,56,16.10
2010,08,21,08,57,16.20
2010,08,21,08,58,16.30
2010,08,21,08,59,16.40
2010,08,21,09,00,16.50
2010,08,21,09,01,16.60
2010,08,21,09,02,16.70
2010,08,21,09,03,16.80
2010,08,21,09,04,16.90
2010,08,21,09,05,17.00
2010,08,21,09,06,17.00
2010,08,21,09,07,17.10
2010,08,21,09,08,17.10
2010,08,21,09,09,17.10
2010,08,21,09,10,17.20
2010,08,21,09,11,17.10
2010,08,21,09,12,17.20
2010,08,21,09,13,17.20
2010,08,21,09,14,17.30
2010,08,21,09,15,17.30
2010,08,21,09,16,17.20
2010,08,21,09,17,17.10
2010,08,21,09,18,17.10
2010,08,21,09,19,17.00
2010,08,21,09,20,17.00
2010,08,21,09,21,17.00
2010,08,21,09,22,17.10
2010,08,21,09,23,17.10
2010,08,21,09,24,17.00
2010,08,21,09,25,17.00
2010,08,21,09,26,16.90
2010,08,21,09,27,17.00
2010,08,21,09,28,16.90
2010,08,21,09,29,16.90
2010,08,21,09,30,17.00
2010,08,21,09,31,17.00
2010,08,21,09,32,16.90
2010,08,21,09,33,16.90
2010,08,21,09,34,16.90
2010,08,21,09,35,17.00
2010,08,21,09,36,17.10
2010,08,21,09,37,17.10
2010,08,21,09,38,17.10
2010,08,21,09,39,17.20
2010,08,21,09,40,17.20
2010,08,21,09,41,17.30
2010,08,21,09,42,17.40
2010,08,21,09,43,17.50
2010,08,21,09,44,17.50
2010,08,21,09,45,17.60
2010,08,21,09,46,17.60
2010,08,21,09,47,17.70
2010,08,21,09,48,17.70
2010,08,21,09,49,17.70
2010,08,21,09,50,17.60
2010,08,21,09,51,17.70
2010,08,21,09,52,17.80
2010,08,21,09,53,17.70
2010,08,21,09,54,17.70
2010,08,21,09,55,17.70
2010,08,21,09,56,17.70
2010,08,21,09,57,17.70
2010,08,21,09,58,17.60
2010,08,21,09,59,17.50
2010,08,21,10,00,17.30
2010,08,21,10,01,17.20
2010,08,21,10,02,17.20
2010,08,21,10,03,17.20
2010,08,21,10,04,17.20
2010,08,21,10,05,17.30
2010,08,21,10,06,17.40
2010,08,21,10,07,17.40
2010,08,21,10,08,17.40
2010,08,21,10,09,17.50
2010,08,21,10,10,17.60
2010,08,21,10,11,17.70
2010,08,21,10,12,17.80
2010,08,21,10,13,18.00
2010,08,21,10,14,18.10
2010,08,21,10,15,18.20
2010,08,21,10,16,18.20
2010,08,21,10,17,18.20
2010,08,21,10,18,18.20
2010,08,21,10,19,18.30
2010,08,21,10,20,18.50
2010,08,21,10,21,18.50
2010,08,21,10,22,18.40
2010,08,21,10,23,18.30
2010,08,21,10,24,18.20
2010,08,21,10,25,18.10
2010,08,21,10,26,18.00
2010,08,21,10,27,18.00
2010,08,21,10,28,18.00
2010,08,21,10,29,18.00
2010,08,21,10,30,18.00
2010,08,21,10,31,17.90
2010,08,21,10,32,17.90
2010,08,21,10,33,17.90
2010,08,21,10,34,17.80
2010,08,21,10,35,17.80
2010,08,21,10,36,17.90
2010,08,21,10,37,17.90
2010,08,21,10,38,17.80
2010,08,21,10,39,17.80
2010,08,21,10,40,17.80
2010,08,21,10,41,17.80
2010,08,21,10,42,17.80
2010,08,21,10,43,17.80
2010,08,21,10,44,17.80
2010,08,21,10,45,17.80
2010,08,21,10,46,17.80
2010,08,21,10,47,17.80
2010,08,21,10,48,17.70
2010,08,21,10,49,17.70
2010,08,21,10,50,17.70
2010,08,21,10,51,17.60
2010,08,21,10,52,17.70
2010,08,21,10,53,17.70
2010,08,21,10,54,17.80
2010,08,21,10,55,17.80
2010,08,21,10,56,17.90
2010,08,21,10,57,17.80
2010,08,21,10,58,17.80
2010,08,21,10,59,17.80
2010,08,21,11,00,17.80
2010,08,21,11,01,17.90
2010,08,21,11,02,17.90
2010,08,21,11,03,17.90
2010,08,21,11,04,18.00
2010,08,21,11,05,18.00
2010,08,21,11,06,17.90
2010,08,21,11,07,17.90
2010,08,21,11,08,17.90
2010,08,21,11,09,18.00
2010,08,21,11,10,18.00
2010,08,21,11,11,18.00
2010,08,21,11,12,18.10
2010,08,21,11,13,18.10
2010,08,21,11,14,18.00
2010,08,21,11,15,18.00
2010,08,21,11,16,18.00
2010,08,21,11,17,17.90
2010,08,21,11,18,17.90
2010,08,21,11,19,17.90
2010,08,21,11,20,17.90
2010,08,21,11,21,18.00
2010,08,21,11,22,18.10
2010,08,21,11,23,18.10
2010,08,21,11,24,18.10
2010,08,21,11,25,18.10
2010,08,21,11,26,18.10
2010,08,21,11,27,18.10
2010,08,21,11,28,18.00
2010,08,21,11,29,18.00
2010,08,21,11,30,18.00
2010,08,21,11,31,18.00
2010,08,21,11,32,18.00
2010,08,21,11,33,18.00
2010,08,21,11,34,18.00
2010,08,21,11,35,18.00
2010,08,21,11,36,18.00
2010,08,21,11,37,18.10
2010,08,21,11,38,18.10
2010,08,21,11,39,18.10
2010,08,21,11,40,18.10
2010,08,21,11,41,18.10
2010,08,21,11,42,18.10
2010,08,21,11,43,18.00
2010,08,21,11,44,18.00
2010,08,21,11,45,18.00
2010,08,21,11,46,17.90
2010,08,21,11,47,17.90
2010,08,21,11,48,17.90
2010,08,21,11,49,17.80
2010,08,21,11,50,17.80
2010,08,21,11,51,17.90
2010,08,21,11,52,18.00
2010,08,21,11,53,18.10
2010,08,21,11,54,18.20
2010,08,21,11,55,18.20
2010,08,21,11,56,18.20
2010,08,21,11,57,18.20
2010,08,21,11,58,18.20
2010,08,21,11,59,18.30
2010,08,21,12,00,18.30
2010,08,21,12,01,18.20
2010,08,21,12,02,18.10
2010,08,21,12,03,18.00
2010,08,21,12,04,18.00
2010,08,21,12,05,18.00
2010,08,21,12,06,18.00
2010,08,21,12,07,18.00
2010,08,21,12,08,18.10
2010,08,21,12,09,18.10
2010,08,21,12,10,18.20
2010,08,21,12,11,18.30
2010,08,21,12,12,18.30
2010,08,21,12,13,18.40
2010,08,21,12,14,18.40
2010,08,21,12,15,18.40
2010,08,21,12,16,18.40
2010,08,21,12,17,18.40
2010,08,21,12,18,18.30
2010,08,21,12,19,18.20
2010,08,21,12,20,18.10
2010,08,21,12,21,18.00
2010,08,21,12,22,18.00
2010,08,21,12,23,17.90
2010,08,21,12,24,17.90
2010,08,21,12,25,17.90
2010,08,21,12,26,18.00
2010,08,21,12,27,18.00
2010,08,21,12,28,18.00
2010,08,21,12,29,18.10
2010,08,21,12,30,18.10
2010,08,21,12,31,18.00
2010,08,21,12,32,18.00
2010,08,21,12,33,18.10
2010,08,21,12,34,18.20
2010,08,21,12,35,18.20
2010,08,21,12,36,18.30
2010,08,21,12,37,18.30
2010,08,21,12,38,18.40
2010,08,21,12,39,18.40
2010,08,21,12,40,18.40
2010,08,21,12,41,18.50
2010,08,21,12,42,18.50
2010,08,21,12,43,18.60
2010,08,21,12,44,18.60
2010,08,21,12,45,18.60
2010,08,21,12,46,18.60
2010,08,21,12,47,18.50
2010,08,21,12,48,18.50
2010,08,21,12,49,18.40
2010,08,21,12,50,18.40
2010,08,21,12,51,18.40
2010,08,21,12,52,18.40
2010,08,21,12,53,18.40
2010,08,21,12,54,18.50
2010,08,21,12,55,18.40
2010,08,21,12,56,18.50
2010,08,21,12,57,18.50
2010,08,21,12,58,18.60
2010,08,21,12,59,18.60
2010,08,21,13,00,18.70
2010,08,21,13,01,18.80
2010,08,21,13,02,18.80
2010,08,21,13,03,18.80
2010,08,21,13,04,18.80
2010,08,21,13,05,18.80
2010,08,21,13,06,18.70
2010,08,21,13,07,18.70
2010,08,21,13,08,18.70
2010,08,21,13,09,18.70
2010,08,21,13,10,18.80
2010,08,21,13,11,18.70
2010,08,21,13,12,18.70
2010,08,21,13,13,18.60
2010,08,21,13,14,18.70
2010,08,21,13,15,18.70
2010,08,21,13,16,18.70
2010,08,21,13,17,18.60
2010,08,21,13,18,18.60
2010,08,21,13,19,18.60
2010,08,21,13,20,18.60
2010,08,21,13,21,18.60
2010,08,21,13,22,18.60
2010,08,21,13,23,18.60
2010,08,21,13,24,18.60
2010,08,21,13,25,18.70
2010,08,21,13,26,18.70
2010,08,21,13,27,18.70
2010,08,21,13,28,18.80
2010,08,21,13,29,18.80
2010,08,21,13,30,18.90
2010,08,21,13,31,18.90
2010,08,21,13,32,18.90
2010,08,21,13,33,18.90
2010,08,21,13,34,18.90
2010,08,21,13,35,18.90
2010,08,21,13,36,18.90
2010,08,21,13,37,18.90
2010,08,21,13,38,18.90
2010,08,21,13,39,18.90
2010,08,21,13,40,18.90
2010,08,21,13,41,18.90
2010,08,21,13,42,18.90
2010,08,21,13,43,18.80
2010,08,21,13,44,18.80
2010,08,21,13,45,18.90
2010,08,21,13,46,18.80
2010,08,21,13,47,18.80
2010,08,21,13,48,18.80
2010,08,21,13,49,18.80
2010,08,21,13,50,18.80
2010,08,21,13,51,18.80
2010,08,21,13,52,18.80
2010,08,21,13,53,18.90
2010,08,21,13,54,18.90
2010,08,21,13,55,19.00
2010,08,21,13,56,19.10
2010,08,21,13,57,19.10
2010,08,21,13,58,19.20
2010,08,21,13,59,19.20
2010,08,21,14,00,19.30
2010,08,21,14,01,19.40
2010,08,21,14,02,19.40
2010,08,21,14,03,19.40
2010,08,21,14,04,19.30
2010,08,21,14,05,19.30
2010,08,21,14,06,19.30
2010,08,21,14,07,19.30
2010,08,21,14,08,19.20
2010,08,21,14,09,19.30
2010,08,21,14,10,19.30
2010,08,21,14,11,19.30
2010,08,21,14,12,19.40
2010,08,21,14,13,19.40
2010,08,21,14,14,19.30
2010,08,21,14,15,19.20
2010,08,21,14,16,19.10
2010,08,21,14,17,18.90
2010,08,21,14,18,18.80
2010,08,21,14,19,18.80
2010,08,21,14,20,18.70
2010,08,21,14,21,18.60
2010,08,21,14,22,18.60
2010,08,21,14,23,18.60
2010,08,21,14,24,18.70
2010,08,21,14,25,18.70
2010,08,21,14,26,18.60
2010,08,21,14,27,18.60
2010,08,21,14,28,18.60
2010,08,21,14,29,18.70
2010,08,21,14,30,18.70
2010,08,21,14,31,18.70
2010,08,21,14,32,18.70
2010,08,21,14,33,18.70
2010,08,21,14,34,18.80
2010,08,21,14,35,18.80
2010,08,21,14,36,18.90
2010,08,21,14,37,19.00
2010,08,21,14,38,19.10
2010,08,21,14,39,19.10
2010,08,21,14,40,19.20
2010,08,21,14,41,19.10
2010,08,21,14,42,19.10
2010,08,21,14,43,19.10
2010,08,21,14,44,19.10
2010,08,21,14,45,19.00
2010,08,21,14,46,18.90
2010,08,21,14,47,19.00
2010,08,21,14,48,19.10
2010,08,21,14,49,19.10
2010,08,21,14,50,19.20
2010,08,21,14,51,19.20
2010,08,21,14,52,19.20
2010,08,21,14,53,19.20
2010,08,21,14,54,19.30
2010,08,21,14,55,19.30
2010,08,21,14,56,19.20
2010,08,21,14,57,19.20
2010,08,21,14,58,19.00
2010,08,21,14,59,18.90
2010,08,21,15,00,18.90
2010,08,21,15,01,18.80
2010,08,21,15,02,18.70
2010,08,21,15,03,18.60
2010,08,21,15,04,18.40
2010,08,21,15,05,18.30
2010,08,21,15,06,18.30
2010,08,21,15,07,18.30
2010,08,21,15,08,18.40
2010,08,21,15,09,18.40
2010,08,21,15,10,18.50
2010,08,21,15,11,18.50
2010,08,21,15,12,18.50
2010,08,21,15,13,18.60
2010,08,21,15,14,18.70
2010,08,21,15,15,18.70
2010,08,21,15,16,18.70
2010,08,21,15,17,18.60
2010,08,21,15,18,18.50
2010,08,21,15,19,18.50
2010,08,21,15,20,18.40
2010,08,21,15,21,18.40
2010,08,21,15,22,18.30
2010,08,21,15,23,18.30
2010,08,21,15,24,18.40
2010,08,21,15,25,18.50
2010,08,21,15,26,18.60
2010,08,21,15,27,18.60
2010,08,21,15,28,18.60
2010,08,21,15,29,18.70
2010,08,21,15,30,18.70
2010,08,21,15,31,18.80
2010,08,21,15,32,18.90
2010,08,21,15,33,18.90
2010,08,21,15,34,18.90
2010,08,21,15,35,19.00
2010,08,21,15,36,19.00
2010,08,21,15,37,19.00
2010,08,21,15,38,18.90
2010,08,21,15,39,18.90
2010,08,21,15,40,18.90
2010,08,21,15,41,18.90
2010,08,21,15,42,18.90
2010,08,21,15,43,18.90
2010,08,21,15,44,18.80
2010,08,21,15,45,18.60
2010,08,21,15,46,18.50
2010,08,21,15,47,18.40
2010,08,21,15,48,18.30
2010,08,21,15,49,18.30
2010,08,21,15,50,18.20
2010,08,21,15,51,18.20
2010,08,21,15,52,18.20
2010,08,21,15,53,18.20
2010,08,21,15,54,18.20
2010,08,21,15,55,18.20
2010,08,21,15,56,18.10
2010,08,21,15,57,18.00
2010,08,21,15,58,17.90
2010,08,21,15,59,17.90
2010,08,21,16,00,17.90
2010,08,21,16,01,17.90
2010,08,21,16,02,17.90
2010,08,21,16,03,18.00
2010,08,21,16,04,18.00
2010,08,21,16,05,18.00
2010,08,21,16,06,18.00
2010,08,21,16,07,18.00
2010,08,21,16,08,18.10
2010,08,21,16,09,18.00
2010,08,21,16,10,18.00
2010,08,21,16,11,17.90
2010,08,21,16,12,17.90
2010,08,21,16,13,17.80
2010,08,21,16,14,17.80
2010,08,21,16,15,17.80
2010,08,21,16,16,17.80
2010,08,21,16,17,17.80
2010,08,21,16,18,17.70
2010,08,21,16,19,17.70
2010,08,21,16,20,17.70
2010,08,21,16,21,17.70
2010,08,21,16,22,17.70
2010,08,21,16,23,17.70
2010,08,21,16,24,17.60
2010,08,21,16,25,17.60
2010,08,21,16,26,17.60
2010,08,21,16,27,17.60
2010,08,21,16,28,17.50
2010,08,21,16,29,17.40
2010,08,21,16,30,17.30
2010,08,21,16,31,17.20
2010,08,21,16,32,17.10
2010,08,21,16,33,17.00
2010,08,21,16,34,17.00
2010,08,21,16,35,16.90
2010,08,21,16,36,16.90
2010,08,21,16,37,16.80
2010,08,21,16,38,16.80
2010,08,21,16,39,16.70
2010,08,21,16,40,16.70
2010,08,21,16,41,16.50
2010,08,21,16,42,16.40
2010,08,21,16,43,16.30
2010,08,21,16,44,16.20
2010,08,21,16,45,16.10
2010,08,21,16,46,16.00
2010,08,21,16,47,16.00
2010,08,21,16,48,15.90
2010,08,21,16,49,15.90
2010,08,21,16,50,15.90
2010,08,21,16,51,16.00
2010,08,21,16,52,16.00
2010,08,21,16,53,16.00
2010,08,21,16,54,16.10
2010,08,21,16,55,16.10
2010,08,21,16,56,16.20
2010,08,21,16,57,16.20
2010,08,21,16,58,16.20
2010,08,21,16,59,16.30
2010,08,21,17,00,16.30
2010,08,21,17,01,16.30
2010,08,21,17,02,16.40
2010,08,21,17,03,16.40
2010,08,21,17,04,16.50
2010,08,21,17,05,16.50
2010,08,21,17,06,16.50
2010,08,21,17,07,16.50
2010,08,21,17,08,16.50
2010,08,21,17,09,16.60
2010,08,21,17,10,16.60
2010,08,21,17,11,16.60
2010,08,21,17,12,16.60
2010,08,21,17,13,16.70
2010,08,21,17,14,16.70
2010,08,21,17,15,16.80
2010,08,21,17,16,16.90
2010,08,21,17,17,16.90
2010,08,21,17,18,17.00
2010,08,21,17,19,17.10
2010,08,21,17,20,17.30
2010,08,21,17,21,17.40
2010,08,21,17,22,17.50
2010,08,21,17,23,17.50